Regional Weather Roundup
Issued by NWS

Home | Current Version | Previous Version | Graphics & Text | Print | Product List | Glossary On
Versions: 1 2 3 4 5 6 7 8 9 10 11 12 13 14 15 16 17 18 19 20 21 22 23 24 25 26 27 28 29 30 31 32 33 34 35 36 37 38 39 40 41 42 43 44 45 46 47 48 49 50
253
ASUS45 KCYS 172010
RWRWY

WYOMING REGIONAL WEATHER ROUNDUP
NATIONAL WEATHER SERVICE CHEYENNE WY
200 PM MDT THU AUG 17 2017

NOTE:  "FAIR" INDICATES FEW OR NO CLOUDS BELOW 12,000 FEET
WITH NO SIGNIFICANT WEATHER AND/OR OBSTRUCTIONS TO VISIBILITY.

WYZ001-172100-
YELLOWSTONE NATIONAL PARK

CITY           SKY/WX    TMP DP  RH WIND       PRES   REMARKS
LK YELLOWSTONE   N/A     66  34  30 W12       30.31S
W YELLOWSTONE  NOT AVBL

$$
WYZ002>013-054>058-071-098>099-172100-
NORTHERN WYOMING

CITY           SKY/WX    TMP DP  RH WIND       PRES   REMARKS
JACKSON        FAIR      72  34  25 SW15G21   30.22S
CODY           FAIR      78  37  22 VRB6      30.09F
GREYBULL       FAIR      84  32  15 VRB6      30.00F
WORLAND        FAIR      83  36  18 N9        30.01F
SHERIDAN       FAIR      79  36  21 NW8       30.04S
BUFFALO        PTSUNNY   77  38  24 NE6       30.08F
GILLETTE       NOT AVBL
HULETT         FAIR      81  37  21 N20G28    30.03R
NEWCASTLE      FAIR      84  32  15 NW6       29.98F

$$
WYZ014>020-022>026-101>103-172100-
CENTRAL WYOMING

CITY           SKY/WX    TMP DP  RH WIND       PRES   REMARKS
BIG PINEY      PTSUNNY   78  32  18 NW18G26   30.25F
PINEDALE       MOCLDY    75  30  19 NW20G28   30.27S
DUBOIS         MOCLDY    72  27  18 NW17G25   30.21S
LANDER           N/A    N/A N/A N/A MISG      30.08F
RIVERTON       FAIR      81  32  17 NW12      30.09S
CASPER         FAIR      85  29  13 NW16G24   30.07S
DOUGLAS        FAIR      86  40  19 W17       30.04F

$$
WYZ021-027>030-104>119-172100-
SOUTHERN WYOMING

CITY           SKY/WX    TMP DP  RH WIND       PRES   REMARKS
EVANSTON       FAIR      76  35  22 W15G23    30.29F
KEMMERER         N/A     73  32  21 W17G32    30.29F
FORT BRIDGER   MOCLDY    81  31  16 W18G25    30.30S
ROCK SPRINGS   FAIR      79  31  17 W17G24    30.24F
RAWLINS        PTSUNNY   76  31  19 W17G28    30.22F
SARATOGA       FAIR      75  34  22 W15G24    30.27S
LARAMIE        PTSUNNY   74  36  25 NW23G32   30.24S
CHEYENNE       FAIR      74  38  27 S7        30.17S
TORRINGTON     FAIR      87  43  21 CALM      29.99F
PINE BLUFFS    FAIR      81  41  24 N3        30.10R

$$




USA.gov is the U.S. government's official web portal to all federal, state and local government web resources and services.